Flag for USA

Past Weather in Olean, New York, USA — Yesterday and Last 2 Weeks

Currently: 21 °F. Light snow. Mostly cloudy. (Weather station: Olean Municipal, USA). See more current weather

Past Weather in Olean — Graph

°F

Olean Temperature Yesterday

Maximum temperature yesterday: 32 °F (at 4:35 pm)
Minimum temperature yesterday: 27 °F (at 12:35 am)
Average temperature yesterday: 29 °F

High & Low Weather Summary for the Past Weeks

 TemperatureHumidityPressure
High36 °F (Jan 15, 2:15 pm)100% (Jan 12, 10:35 pm)30.21 "Hg (Jan 12, 10:35 pm)
Low12 °F (Jan 24, 12:55 am)55% (Jan 25, 2:15 pm)29.41 "Hg (Jan 16, 1:35 pm)
Average25 °F88%29.80 "Hg
* Reported Jan 12 1:15 pm — Jan 27 1:55 pm, Olean. Weather by CustomWeather, © 2021

Note: Actual official high and low records may vary slightly from our data, if they occured in-between our weather recording intervals... More about our weather records

Olean Weather History for the Previous 24 Hours

Scroll right to see more
 ConditionsComfort  
Time TempWeatherWind HumidityBarometerVisibility
1:55 pm
Wed, Jan 27
21 °FLight snow. Overcast.3 mph93%30.07 "Hg1 mi
1:35 pm21 °FLight snow. Overcast.3 mph93%30.08 "Hg5 mi
12:55 pm21 °FLight snow. Overcast.No wind93%30.06 "Hg5 mi
12:35 pm21 °FLight snow. Overcast.3 mph93%30.06 "Hg7 mi
12:15 pm21 °FLight snow. Overcast.7 mph86%30.06 "Hg7 mi
11:55 am21 °FLight snow. Overcast.No wind86%30.07 "Hg7 mi
11:35 am21 °FLight snow. Mostly cloudy.5 mph93%30.08 "Hg10 mi
11:15 am19 °FLight snow. Low clouds.3 mph100%30.08 "Hg7 mi
10:55 am19 °FLight snow. Low clouds.6 mph100%30.08 "Hg7 mi
10:35 am19 °FLow clouds.7 mph100%30.08 "Hg7 mi
10:15 am19 °FLight snow. Low clouds.10 mph100%30.08 "Hg7 mi
9:55 am19 °FLight snow. Low clouds.7 mph100%30.08 "Hg5 mi
9:35 am19 °FLight snow. Low clouds.10 mph100%30.07 "Hg5 mi
9:15 am19 °FIce fog.5 mph100%30.07 "Hg4 mi
8:35 am19 °FIce fog.7 mph100%30.05 "Hg5 mi
8:15 am19 °FIce fog.3 mph100%30.04 "Hg5 mi
7:55 am19 °FLow clouds.3 mph100%30.04 "Hg10 mi
7:35 am21 °FLow clouds.3 mph100%30.03 "Hg10 mi
6:55 am19 °FLow clouds.6 mph100%30.02 "Hg10 mi
6:35 am19 °FLow clouds.8 mph100%30.01 "Hg10 mi
6:15 am19 °FLow clouds.5 mph100%30.00 "Hg10 mi
5:55 am21 °FLow clouds.5 mph100%29.99 "Hg10 mi
5:35 am21 °FLow clouds.6 mph100%29.99 "Hg7 mi
5:15 am21 °FIce fog.7 mph100%29.98 "Hg2 mi
4:55 am21 °FLow clouds.8 mph100%29.97 "Hg7 mi
4:35 am21 °FLow clouds.6 mph100%29.97 "Hg10 mi
4:15 am21 °FLow clouds.5 mph100%29.95 "Hg10 mi
3:55 am21 °FLow clouds.5 mph100%29.95 "Hg7 mi
3:35 am23 °FIce fog.7 mph100%29.94 "Hg5 mi
3:15 am23 °FIce fog.6 mph100%29.93 "Hg3 mi
2:55 am23 °FIce fog.8 mph100%29.92 "Hg5 mi
2:35 am23 °FLow clouds.7 mph100%29.90 "Hg7 mi
2:15 am23 °FIce fog.6 mph100%29.88 "Hg5 mi
1:55 am23 °FLow clouds.6 mph100%29.87 "Hg7 mi
1:15 am25 °FLight snow. Low clouds.3 mph100%29.85 "Hg5 mi
12:55 am25 °FLight snow. Low clouds.7 mph100%29.83 "Hg5 mi
12:35 am25 °FIce fog.7 mph100%29.82 "Hg5 mi
12:15 am25 °FLight snow. Low clouds.6 mph100%29.81 "Hg5 mi
11:55 pm
Tue, Jan 26
27 °FLight snow. Low clouds.13 mph100%29.79 "Hg5 mi
11:35 pm27 °FLow clouds.No wind100%29.79 "Hg10 mi
11:15 pm27 °FLow clouds.10 mph100%29.78 "Hg7 mi
10:55 pm27 °FLow clouds.8 mph100%29.76 "Hg7 mi
10:35 pm28 °FOvercast.6 mph100%29.75 "Hg10 mi
10:15 pm28 °FOvercast.6 mph100%29.74 "Hg10 mi
9:55 pm30 °FLight snow. Low clouds.9 mph100%29.73 "Hg5 mi
9:35 pm30 °FLight snow. Mostly cloudy.6 mph100%29.72 "Hg4 mi
9:15 pm30 °FLight snow. Low clouds.5 mph100%29.71 "Hg5 mi
8:55 pm30 °FLight snow. Low clouds.8 mph100%29.71 "Hg3 mi
8:35 pm30 °FLow clouds.7 mph100%29.71 "Hg10 mi
8:15 pm32 °FMostly cloudy.8 mph100%29.70 "Hg10 mi
7:55 pm32 °FLow clouds.8 mph100%29.69 "Hg10 mi
7:15 pm32 °FLight snow. Low clouds.7 mph100%29.67 "Hg4 mi
6:55 pm32 °FLight snow. Low clouds.3 mph100%29.67 "Hg4 mi
6:35 pm32 °FLight snow. Low clouds.3 mph100%29.66 "Hg4 mi
6:15 pm32 °FLight snow. Low clouds.6 mph100%29.66 "Hg5 mi
5:55 pm32 °FLight snow. Low clouds.7 mph100%29.64 "Hg5 mi
5:35 pm32 °FLight snow. Low clouds.7 mph100%29.64 "Hg3 mi
5:15 pm32 °FLight snow. Low clouds.8 mph100%29.62 "Hg2 mi
4:55 pm32 °FIce fog.8 mph100%29.62 "Hg1 mi
4:35 pm32 °FIce fog.9 mph100%29.61 "Hg0 mi
4:15 pm30 °FIce fog.9 mph100%29.60 "Hg1 mi
3:55 pm30 °FIce fog.7 mph100%29.61 "Hg0 mi
3:35 pm30 °FIce fog.8 mph100%29.60 "Hg0 mi
Weather by CustomWeather, © 2021

See weather overview